Date String (YYYY-MM-DD hh:mm:ss) UTC,Instrument flags,Ambient pressure (hPa),Sample flow (lpm),Bypass flow (lpm),Sample temperature (°C),Ambient temperature (°C),ASC tube jacket temperature (°C),LED temperature (°C),Box temperature (°C),Sample RH (%),Span deviation,Mass concentration (μg/m³),Mass concentration (μg/m³),Mass concentration (μg/m³)
DateTimeUTC,F1_M11,P_M11,Q1_M11,Q2_M11,T1_M11,T2_M11,T3_M11,T4_M11,T5_M11,U1_M11,ZSPAN_M11,X0_M11,X2_M11,X1_M11
2022-03-21 01:00:00,,0815.9,5.01,0.00,29.1,28.4,00.0,38.0,30.9,07.2,0000.0,0010.52,0004.11,0002.49
2022-03-21 01:01:00,,0815.9,4.99,0.00,29.1,28.4,00.0,38.0,30.9,07.2,0000.0,0011.25,0004.12,0002.46
2022-03-21 01:02:00,,0815.9,4.99,0.00,29.1,28.4,00.0,38.1,30.9,07.1,0000.0,0011.23,0004.10,0002.46
2022-03-21 01:03:00,,0815.9,5.01,0.00,29.1,28.4,00.0,38.1,30.9,07.0,0000.0,0011.42,0004.08,0002.46
2022-03-21 01:04:00,,0816.0,4.98,0.00,29.2,28.4,00.0,38.1,30.9,06.9,0000.0,0011.74,0004.10,0002.44
2022-03-21 01:05:00,,0815.9,5.00,0.00,29.2,28.4,00.0,38.1,30.9,06.9,0000.0,0012.13,0004.07,0002.43
2022-03-21 01:06:00,,0816.0,5.02,0.00,29.2,28.4,00.0,38.1,30.9,07.0,0000.0,0012.49,0004.01,0002.42
2022-03-21 01:07:00,,0816.0,4.99,0.00,29.2,28.4,00.0,38.1,30.9,07.0,0000.0,0012.88,0004.03,0002.43
2022-03-21 01:08:00,,0816.0,5.00,0.00,29.2,28.4,00.0,38.1,30.9,07.2,0000.0,0012.99,0004.03,0002.41
2022-03-21 01:09:00,,0816.0,4.98,0.00,29.2,28.4,00.0,38.1,30.9,07.6,0000.0,0012.69,0004.01,0002.39
2022-03-21 01:10:00,,0816.0,5.02,0.00,29.1,28.3,00.0,38.1,30.9,07.8,0000.0,0012.45,0003.98,0002.38
2022-03-21 01:11:00,,0816.0,4.98,0.00,29.1,28.3,00.0,38.1,30.8,07.9,0000.0,0011.54,0003.96,0002.37
2022-03-21 01:12:00,,0816.0,5.00,0.00,29.1,28.3,00.0,38.1,30.7,08.0,0000.0,0010.74,0003.97,0002.38
2022-03-21 01:13:00,,0816.1,5.00,0.00,29.1,28.2,00.0,38.1,30.7,08.0,0000.0,0010.75,0004.00,0002.38
2022-03-21 01:14:00,,0816.0,5.01,0.00,29.1,28.2,00.0,38.1,30.7,08.1,0000.0,0010.52,0003.99,0002.38
2022-03-21 01:15:00,,0816.0,4.98,0.00,29.0,28.2,00.0,38.1,30.7,08.1,0000.0,0010.03,0003.97,0002.37
2022-03-21 01:16:00,,0816.0,4.99,0.00,29.1,28.2,00.0,38.1,30.8,08.1,0000.0,0009.68,0004.00,0002.36
2022-03-21 01:17:00,,0816.0,4.98,0.00,29.1,28.2,00.0,38.1,30.8,08.2,0000.0,0009.25,0004.02,0002.35
2022-03-21 01:18:00,,0816.0,5.02,0.00,29.1,28.2,00.0,38.1,30.8,08.1,0000.0,0008.93,0004.03,0002.32
2022-03-21 01:19:00,,0816.0,5.00,0.00,29.1,28.2,00.0,38.1,30.8,08.3,0000.0,0009.04,0004.06,0002.30
2022-03-21 01:20:00,,0816.0,4.99,0.00,29.1,28.2,00.0,38.1,30.8,08.4,0000.0,0009.16,0004.06,0002.28
2022-03-21 01:21:00,,0816.0,5.03,0.00,29.1,28.3,00.0,38.1,30.8,08.4,0000.0,0009.37,0004.07,0002.26
2022-03-21 01:22:00,,0815.9,4.99,0.00,29.1,28.3,00.0,38.1,30.8,08.4,0000.0,0009.53,0004.10,0002.26
2022-03-21 01:23:00,,0815.9,5.01,0.00,29.1,28.3,00.0,38.1,30.8,08.1,0000.0,0009.44,0004.07,0002.24
2022-03-21 01:24:00,,0815.9,4.99,0.00,29.1,28.3,00.0,38.1,30.8,08.2,0000.0,0009.47,0004.06,0002.23
2022-03-21 01:25:00,,0816.0,5.02,0.00,29.1,28.2,00.0,38.1,30.8,08.1,0000.0,0009.57,0004.08,0002.23
2022-03-21 01:26:00,,0815.9,4.98,0.00,29.1,28.2,00.0,38.1,30.8,08.1,0000.0,0009.62,0004.05,0002.22
2022-03-21 01:27:00,,0816.0,5.01,0.00,29.1,28.2,00.0,38.1,30.8,08.1,0000.0,0009.66,0004.04,0002.22
2022-03-21 01:28:00,,0816.0,4.99,0.00,29.1,28.2,00.0,38.1,30.8,08.1,0000.0,0009.55,0004.04,0002.21
2022-03-21 01:29:00,,0816.0,5.02,0.00,29.1,28.2,00.0,38.1,30.8,08.1,0000.0,0009.55,0004.05,0002.23
2022-03-21 01:30:00,,0816.0,4.98,0.00,29.1,28.2,00.0,38.1,30.8,08.2,0000.0,0009.52,0004.01,0002.23
2022-03-21 01:31:00,,0816.0,5.02,0.00,29.1,28.2,00.0,38.1,30.8,08.2,0000.0,0009.18,0003.96,0002.25
2022-03-21 01:32:00,,0816.1,4.99,0.00,29.1,28.3,00.0,38.1,30.8,08.3,0000.0,0009.14,0003.99,0002.26
2022-03-21 01:33:00,,0816.0,5.00,0.00,29.1,28.3,00.0,38.1,30.8,08.4,0000.0,0008.76,0003.94,0002.26
2022-03-21 01:34:00,,0816.0,5.01,0.00,29.1,28.3,00.0,38.1,30.8,08.6,0000.0,0009.46,0003.99,0002.28
2022-03-21 01:35:00,,0816.0,5.00,0.00,29.1,28.3,00.0,38.1,30.8,08.7,0000.0,0010.19,0004.00,0002.31
2022-03-21 01:36:00,,0816.0,5.00,0.00,29.1,28.3,00.0,38.1,30.8,08.4,0000.0,0010.31,0003.97,0002.31
2022-03-21 01:37:00,,0816.0,4.98,0.00,29.1,28.3,00.0,38.1,30.8,08.5,0000.0,0010.27,0004.02,0002.32
2022-03-21 01:38:00,,0816.0,5.00,0.00,29.1,28.2,00.0,38.1,30.8,08.3,0000.0,0010.89,0004.07,0002.34
2022-03-21 01:39:00,,0816.1,5.00,0.00,29.1,28.2,00.0,38.1,30.8,08.1,0000.0,0011.68,0004.11,0002.34
2022-03-21 01:40:00,,0816.0,5.01,0.00,29.1,28.2,00.0,38.1,30.8,08.2,0000.0,0011.92,0004.13,0002.32
2022-03-21 01:41:00,,0816.0,4.99,0.00,29.1,28.2,00.0,38.1,30.8,08.4,0000.0,0012.07,0004.20,0002.35
2022-03-21 01:42:00,,0816.0,5.02,0.00,29.1,28.2,00.0,38.1,30.8,08.3,0000.0,0012.27,0004.22,0002.34
2022-03-21 01:43:00,,0816.0,4.99,0.00,29.1,28.2,00.0,38.1,30.8,08.3,0000.0,0012.65,0004.19,0002.33
2022-03-21 01:44:00,,0816.0,5.00,0.00,29.1,28.2,00.0,38.1,30.8,08.2,0000.0,0012.62,0004.16,0002.34
2022-03-21 01:45:00,,0816.0,5.00,0.00,29.1,28.2,00.0,38.1,30.7,07.9,0000.0,0012.25,0004.08,0002.33
2022-03-21 01:46:00,,0816.0,5.00,0.00,29.1,28.2,00.0,38.1,30.7,08.0,0000.0,0011.63,0004.08,0002.33
2022-03-21 01:47:00,,0816.0,4.99,0.00,29.1,28.2,00.0,38.1,30.8,08.1,0000.0,0011.59,0004.13,0002.35
2022-03-21 01:48:00,,0816.0,5.01,0.00,29.1,28.2,00.0,38.1,30.8,08.0,0000.0,0011.73,0004.14,0002.36
2022-03-21 01:49:00,,0816.0,5.00,0.00,29.1,28.2,00.0,38.1,30.8,08.0,0000.0,0011.25,0004.12,0002.35
2022-03-21 01:50:00,,0816.0,5.00,0.00,29.1,28.2,00.0,38.1,30.8,08.1,0000.0,0010.54,0004.09,0002.36
2022-03-21 01:51:00,,0816.2,4.99,0.00,29.1,28.2,00.0,38.1,30.7,08.1,0000.0,0010.24,0004.05,0002.38
2022-03-21 01:52:00,,0816.4,5.00,0.00,29.1,28.1,00.0,38.1,30.7,08.1,0000.0,0010.09,0004.02,0002.38
2022-03-21 01:53:00,,0816.5,5.00,0.00,29.1,28.1,00.0,38.1,30.8,08.0,0000.0,0009.90,0004.02,0002.41
2022-03-21 01:54:00,,0816.5,4.99,0.00,29.1,28.1,00.0,38.1,30.8,08.1,0000.0,0009.60,0004.06,0002.43
2022-03-21 01:55:00,,0816.3,5.01,0.00,29.1,28.1,00.0,38.1,30.8,08.2,0000.0,0009.79,0004.10,0002.44
2022-03-21 01:56:00,,0816.4,4.99,0.00,29.1,28.1,00.0,38.1,30.8,08.1,0000.0,0009.71,0004.12,0002.47
2022-03-21 01:57:00,,0816.4,5.00,0.00,29.1,28.1,00.0,38.1,30.8,07.9,0000.0,0009.83,0004.13,0002.46
2022-03-21 01:58:00,,0816.3,5.00,0.00,29.1,28.1,00.0,38.1,30.7,07.9,0000.0,0009.71,0004.09,0002.44
2022-03-21 01:59:00,,0816.3,5.01,0.00,29.1,28.1,00.0,38.1,30.7,07.9,0000.0,0010.26,0004.11,0002.46
